Showing default

YAOGAN-40 02B, 63919

Orbit data source: Space-Track

YAOGAN-40 02B, 63919 is a payload satellite owned by CAST (CN) in LEO that was launched on Sun, 11 May 2025 UTC via a CHANG ZHENG 6A launch vehicle from the Taiyaun Space Center, China (TSC). Payload-class satellites include a variety of spacecraft equipped with specific instruments for various scientific and technological missions. These include communications satellites like Starlink; space stations such as the ISS; scientific satellites like the Hubble; Earth observation satellites from companies like Planet Labs, Umbra, and HawkEye 360; GPS; miniature CubeSats for education and research; and military/defense satellites.

Loading next visibility...
Identifier
63919, 2025-096B
Orbit
LEO
Country
Flag of CNCN / PRC
Related business
Manufacturer
DFH
Mission
Operational Defense Sigint
Bus & Motor
YG40, Unknown motor
Mass
~500 kg wet, ~500 kg dry
Launch date (UTC)
2025-05-11 (1 year ago)
Launch vehicle
CHANG ZHENG 6A
Launch site
Taiyaun Space Center, China (TSC)
Object type
Payload
Rocket body
Debris
Shape & HBR
Box + 2 Pan, 2.0 m
Radar Cross Section
5.141 m², Large (>1 m²)

Expand to show TLE details & history
Last TLE update: 12 hours ago

TLE from 12 hours ago
0 YAOGAN-40 02B
1 63919U 25096B   26171.46908859  .00000137  00000-0  63809-4 0  9997
2 63919  85.9947 186.4685 0002343  97.2420 262.9030 14.12449101 57030
Epoch: 2026-06-20T11:15Z
TLE epoch observation values (Epoch: 2026-06-20T11:15:29.254Z)
Latitude
0.00005°
Longitude
108.91334°
Altitude
854.227 km
Speed
7.425 km/s
True Right ascension
12h 25m 52s
True Declination
0° 00' 00"
Sunlit
Object was in daylight at epoch
Visualization orbit readout
Latitude
Unknown
Longitude
Unknown
Altitude
Unknown
Speed
Unknown
Apparent Right ascension
Unknown
Apparent Declination
Unknown
Sunlit
N/A
Visualization observer readout
Local Sidereal Time
10:20:18
Azimuth
Unknown
Elevation
Unknown
Doppler factor
Unknown
Orbital elements
Apogee altitude
849.7 km
Perigee altitude
846.314 km
Semi-major axis
7,226.144 km
Eccentricity
0.00023
Inclination
85.9947°
RAAN
186.4685°
Arg. of periapsis
97.242°
True anomaly
262.87636°
Mean anomaly
262.903°
Eccentric anomaly
262.88968°
Mean motion
3.53332 °/min
Orbital period
101.89 mins
BSTAR
0.000063809
Loading maneuver chart data...
Computing Atmospheric mass density...
Loading historical data...
Loading historical data...
Loading historical data...
Loading historical data...
Loading historical data...
Loading historical data...
Loading historical data...
Other satellites on launch #96 in the year 2025 (2025-05-11 UTC)

Documentation

Showing up to 5 results
|